DELTA 1 DEB, 7126

Orbit data source: Space-Track

DELTA 1 DEB, 7126 is space debris in SSO originally from a launch on Tue, 06 Nov 1973 UTC launched from the Air Force Western Test Range (AFWTR). Debris objects in space refer to the collection of defunct objects orbiting the Earth. Examples of debris include non-operational satellites, rocket bodies, and fragments generated from explosions, collisions, or faulty payload assembly.

Loading next visibility...
Identifier
7126, 1973-086CQ
Orbit
SSO
Country
Flag of USUS
Related business
Manufacturer
Unknown
Mission
Spacecraft
Bus & Motor
Unknown
Mass
Unknown
Launch date (UTC)
1973-11-06 (52 years ago)
Launch vehicle
Unknown
Launch site
Air Force Western Test Range (AFWTR)
Object type
Payload
Rocket body
Debris
Shape & HBR
Unknown shape, 0.1 m
Radar Cross Section
Small (<0.1 m²)

Expand to show TLE details & history
Last TLE update: 15 hours ago

TLE from 15 hours ago
0 DELTA 1 DEB
1  7126U 73086CQ  26122.40125611  .00000178  00000-0  14308-2 0  9997
2  7126 101.9966  98.6771 0283731 356.2174 158.3123 12.41023054368709
Epoch: 2026-05-02T09:37Z
TLE epoch observation values (Epoch: 2026-05-02T09:37:48.527Z)
Latitude
23.76499°
Longitude
-80.75154°
Altitude
1,713.453 km
Speed
6.928 km/s
True Right ascension
18h 56m 04s
True Declination
23° 39' 12"
Sunlit
Object was in daylight at epoch
Visualization orbit readout
Latitude
Unknown
Longitude
Unknown
Altitude
Unknown
Speed
Unknown
Apparent Right ascension
Unknown
Apparent Declination
Unknown
Sunlit
N/A
Visualization observer readout
Local Sidereal Time
08:21:11
Azimuth
Unknown
Elevation
Unknown
Doppler factor
Unknown
Orbital elements
Apogee altitude
1,723.362 km
Perigee altitude
1,276.317 km
Semi-major axis
7,877.977 km
Eccentricity
0.02837
Inclination
101.9966°
RAAN
98.6771°
Arg. of periapsis
356.2174°
True anomaly
159.47536°
Mean anomaly
158.3123°
Eccentric anomaly
158.8976°
Mean motion
3.104 °/min
Orbital period
115.98 mins
BSTAR
0.0014308
Loading maneuver chart data...
Computing Atmospheric mass density...
Loading historical data...
Loading historical data...
Loading historical data...
Loading historical data...
Loading historical data...
Loading historical data...
Loading historical data...

Documentation

Showing up to 5 results
|